Weather History for Cold Bay, AK

Change the Weather History Date:

Friday, September 6, 2013

  Actual Average Record
Temperature  
Mean Temperature 50 °F 50 °F  
Max Temperature 54 °F 55 °F 65 °F (1947)
Min Temperature 45 °F 46 °F 32 °F (2012)
Degree Days  
Heating Degree Days 15 15  
Month to date heating degree days 77 86  
Since 1 July heating degree days 748 930  
Cooling Degree Days 0    
Month to date cooling degree days 0  
Year to date cooling degree days 0  
Moisture  
Dew Point 47 °F    
Average Humidity 0    
Maximum Humidity 0    
Minimum Humidity 0    
Precipitation  
Precipitation 0.05 in 0.16 in 1.81 in (1955)
Month to date precipitation 0.88 0.87  
Year to date precipitation 28.83 23.61  
Snow  
Snow 0.00 in 0.00 in 0.00 in (2014)
Month to date snowfall 0.0 0.0  
Since 1 July snowfall 0.0 0.0  
Since 1 September snowfall 0.0 0.0  
Snow Depth 0.00 in    
Sea Level Pressure  
Sea Level Pressure 29.69 in    
Wind  
Wind Speed 10 mph (NW)    
Max Wind Speed 22 mph    
Max Gust Speed 26 mph    
Visibility 9 miles    
Events Rain    
T = Trace of Precipitation, MM = Missing Value Source: NWS Daily Summary

Daily Weather History Graph

Daily Weather History Graph

Search for Another Location

Airport:

Trip Planner

Search our weather history database for the weather conditions in past years. The results will help you decide how hot, cold, wet, or windy it might be!

Date:

Astronomy

Sep. 06, 2013 Rise Set
Actual Time 8:07 AM AKDT 9:29 PM AKDT
Civil Twilight 7:29 AM AKDT 10:07 PM AKDT
Nautical Twilight 6:42 AM AKDT 10:53 PM AKDT
Astronomical Twilight 5:50 AM AKDT 11:45 PM AKDT
Moon 9:55 AM AKDT (9/6) 9:32 PM AKDT (9/6)
Length of Visible Light 14h 37m
Length of Day
13h 22m
New Moon, 2% of the Moon is Illuminated
Sep 6
New Moon
Sep 12
First Quarter
Sep 19
Full
Sep 26
Last Quarter
Oct 4
New

Hourly Weather History & Observations

Time (AKDT) Temp. Dew Point Humidity Pressure Visibility Wind Dir Wind Speed Gust Speed Precip Events Conditions
12:53 AM 51.1 °F 48.0 °F 89% 29.73 in 10.0 mi NNE 5.8 mph - N/A   Overcast
1:53 AM 51.1 °F 48.0 °F 89% 29.72 in 10.0 mi NNE 5.8 mph - N/A   Overcast
2:53 AM 50.0 °F 46.9 °F 89% 29.70 in 10.0 mi Calm Calm - N/A   Overcast
3:43 AM 50.0 °F 46.4 °F 87% 29.69 in 10.0 mi South 3.5 mph - N/A   Overcast
3:53 AM 51.1 °F 48.0 °F 89% 29.69 in 10.0 mi Calm Calm - N/A   Overcast
4:53 AM 50.0 °F 46.9 °F 89% 29.68 in 10.0 mi WSW 4.6 mph - N/A   Overcast
5:53 AM 50.0 °F 46.9 °F 89% 29.67 in 10.0 mi NW 8.1 mph - N/A   Overcast
6:53 AM 50.0 °F 46.9 °F 89% 29.66 in 10.0 mi NNW 5.8 mph - N/A   Overcast
7:53 AM 51.1 °F 48.0 °F 89% 29.65 in 10.0 mi NNW 6.9 mph - N/A   Overcast
8:00 AM 51.8 °F 48.2 °F 88% 29.65 in 10.0 mi NW 6.9 mph - N/A   Overcast
8:16 AM 51.8 °F 48.2 °F 88% 29.65 in 10.0 mi NNW 6.9 mph - N/A   Overcast
8:53 AM 51.1 °F 48.0 °F 89% 29.66 in 10.0 mi NNW 8.1 mph - N/A   Overcast
9:45 AM 51.8 °F 48.2 °F 88% 29.66 in 10.0 mi NNW 10.4 mph - N/A   Overcast
9:53 AM 51.1 °F 48.0 °F 89% 29.66 in 10.0 mi NNW 11.5 mph - N/A   Overcast
10:02 AM 51.8 °F 48.2 °F 88% 29.66 in 10.0 mi NNW 11.5 mph - N/A   Overcast
10:53 AM 54.0 °F 48.9 °F 83% 29.66 in 10.0 mi NNW 15.0 mph - N/A   Mostly Cloudy
11:53 AM 53.1 °F 48.0 °F 83% 29.67 in 10.0 mi NNW 17.3 mph - N/A   Overcast
12:00 PM 53.6 °F 48.2 °F 82% 29.67 in 10.0 mi NW 15.0 mph - N/A   Overcast
12:09 PM 53.6 °F 46.4 °F 77% 29.66 in 10.0 mi NNW 16.1 mph - N/A   Overcast
12:31 PM 53.6 °F 48.2 °F 82% 29.66 in 10.0 mi NNW 16.1 mph - N/A   Overcast
12:46 PM 53.6 °F 48.2 °F 82% 29.66 in 10.0 mi NW 18.4 mph - N/A   Overcast
12:53 PM 52.0 °F 46.9 °F 83% 29.67 in 10.0 mi NNW 18.4 mph - N/A   Overcast
1:01 PM 51.8 °F 46.4 °F 82% 29.67 in 10.0 mi NNW 15.0 mph - N/A   Overcast
1:14 PM 51.8 °F 46.4 °F 82% 29.67 in 10.0 mi NW 16.1 mph - N/A   Overcast
1:27 PM 51.8 °F 46.4 °F 82% 29.67 in 10.0 mi NW 18.4 mph - N/A   Overcast
1:53 PM 51.1 °F 48.0 °F 89% 29.67 in 8.0 mi NW 17.3 mph - 0.00 in Rain Light Rain
2:53 PM 50.0 °F 46.9 °F 89% 29.68 in 9.0 mi NW 19.6 mph - 0.00 in Rain Light Rain
3:33 PM 51.8 °F 48.2 °F 88% 29.68 in 3.0 mi NW 17.3 mph - 0.00 in Rain Light Rain
3:53 PM 51.1 °F 48.0 °F 89% 29.69 in 4.0 mi NW 18.4 mph - 0.01 in Rain Light Rain
4:09 PM 50.0 °F 48.2 °F 94% 29.69 in 5.0 mi NW 20.7 mph - 0.00 in Rain Light Rain
4:28 PM 50.0 °F 48.2 °F 94% 29.69 in 2.5 mi NW 19.6 mph - 0.00 in Rain Light Rain
4:50 PM 50.0 °F 46.4 °F 87% 29.69 in 4.0 mi NW 18.4 mph - 0.01 in Rain Light Rain
4:53 PM 50.0 °F 46.9 °F 89% 29.70 in 5.0 mi NW 16.1 mph - 0.01 in Rain Light Rain
5:53 PM 50.0 °F 46.9 °F 89% 29.70 in 3.0 mi NW 16.1 mph - 0.01 in Rain Light Rain
6:04 PM 48.2 °F 46.4 °F 93% 29.70 in 3.0 mi NW 17.3 mph 23.0 mph 0.01 in Rain Light Rain
6:43 PM 48.2 °F 46.4 °F 93% 29.71 in 6.0 mi NW 13.8 mph - 0.02 in   Overcast
6:53 PM 48.9 °F 45.0 °F 86% 29.71 in 7.0 mi NW 12.7 mph - 0.02 in   Overcast
7:45 PM 50.0 °F 44.6 °F 82% 29.72 in 10.0 mi NW 11.5 mph - N/A   Overcast
7:53 PM 50.0 °F 44.1 °F 80% 29.72 in 10.0 mi NW 11.5 mph - N/A   Overcast
8:38 PM 48.2 °F 42.8 °F 82% 29.72 in 10.0 mi NW 10.4 mph - N/A   Overcast
8:53 PM 48.9 °F 43.0 °F 80% 29.73 in 10.0 mi NW 8.1 mph - N/A   Overcast
9:53 PM 48.0 °F 43.0 °F 83% 29.74 in 10.0 mi WNW 5.8 mph - N/A   Overcast
10:53 PM 46.9 °F 43.0 °F 86% 29.75 in 10.0 mi NW 4.6 mph - N/A   Overcast
11:53 PM 46.9 °F 43.0 °F 86% 29.76 in 10.0 mi NW 3.5 mph - N/A   Overcast